W4HSV Weather Reports


time (UTC)temp
F
wind
direction
speed
knots
gust
knots
rain 1hr
in
rain 24hr
in
rain mn
in
humidity
%
barometer
mb
20260505184110 77 227 6.1 14.8 0.00 0.00 0.00 43 1012.5
20260505184017 77 179 7.8 14.8 0.00 0.00 0.00 42 1012.5
20260505183928 77 162 8.7 14.8 0.00 0.00 0.00 43 1012.5
20260505183835 77 196 7.0 14.8 0.00 0.00 0.00 43 1012.6
20260505183721 77 167 6.1 14.8 0.00 0.00 0.00 45 1012.6
20260505183610 77 180 8.7 14.8 0.00 0.00 0.00 43 1012.6
20260505183544 77 182 8.7 14.8 0.00 0.00 0.00 43 1012.6
20260505183319 77 180 8.7 14.8 0.00 0.00 0.00 42 1012.5
20260505183226 77 197 7.8 13.9 0.00 0.00 0.00 43 1012.5
20260505183114 77 180 8.7 13.9 0.00 0.00 0.00 44 1012.5
20260505183021 77 200 8.7 13.9 0.00 0.00 0.00 44 1012.5
20260505182930 77 241 8.7 15.6 0.00 0.00 0.00 45 1012.4
20260505182821 77 184 8.7 13.9 0.00 0.00 0.00 44 1012.5
20260505182728 77 169 7.8 13.0 0.00 0.00 0.00 44 1012.5
20260505182616 77 215 7.0 18.2 0.00 0.00 0.00 44 1012.4
20260505182523 77 225 5.2 18.2 0.00 0.00 0.00 45 1012.4
20260505182410 77 216 5.2 19.1 0.00 0.00 0.00 45 1012.6
20260505182321 77 195 7.0 19.1 0.00 0.00 0.00 45 1012.6
20260505182229 77 214 7.8 19.1 0.00 0.00 0.00 44 1012.5
20260505182136 77 199 9.6 19.1 0.00 0.00 0.00 44 1012.6
20260505182106 77 198 9.6 19.1 0.00 0.00 0.00 43 1012.6
20260505181818 77 186 9.6 19.1 0.00 0.00 0.00 42 1012.7
20260505181710 77 200 9.6 19.1 0.00 0.00 0.00 41 1012.7
20260505181616 77 150 10.4 19.1 0.00 0.00 0.00 43 1012.7
20260505181524 77 161 8.7 19.1 0.00 0.00 0.00 42 1012.7
20260505181412 77 184 6.1 16.5 0.00 0.00 0.00 43 1012.6
20260505181318 77 110 5.2 16.5 0.00 0.00 0.00 41 1012.7
20260505181246 77 163 7.0 16.5 0.00 0.00 0.00 41 1012.7
20260505181136 77 190 9.6 16.5 0.00 0.00 0.00 42 1012.8
20260505181022 77 184 12.2 16.5 0.00 0.00 0.00 41 1012.8
20260505180910 77 184 9.6 16.5 0.00 0.00 0.00 41 1012.8
20260505180816 77 199 7.8 16.5 0.00 0.00 0.00 43 1012.8
20260505180745 77 209 8.7 16.5 0.00 0.00 0.00 42 1012.8
20260505180631 77 201 9.6 16.5 0.00 0.00 0.00 43 1012.8
20260505180544 77 187 8.7 17.4 0.00 0.00 0.00 43 1012.8
20260505180318 77 187 8.7 13.9 0.00 0.00 0.00 42 1012.8
20260505180247 77 217 8.7 13.9 0.00 0.00 0.00 43 1012.8
20260505180114 77 201 7.8 15.6 0.00 0.00 0.00 43 1012.8
20260505180020 77 223 6.1 15.6 0.00 0.00 0.00 43 1012.8
20260505175912 77 186 7.0 15.6 0.00 0.00 0.00 43 1012.7
20260505175821 77 202 7.0 15.6 0.00 0.00 0.00 44 1012.7
20260505175729 77 213 8.7 15.6 0.00 0.00 0.00 44 1012.7
20260505175615 76 264 7.8 15.6 0.00 0.00 0.00 43 1012.5
20260505175523 76 221 7.0 15.6 0.00 0.00 0.00 45 1012.5
20260505175430 76 200 7.8 15.6 0.00 0.00 0.00 44 1012.6
20260505175321 76 182 9.6 15.6 0.00 0.00 0.00 42 1012.6
20260505175228 76 209 8.7 15.6 0.00 0.00 0.00 43 1012.7
20260505175116 76 173 8.7 15.6 0.00 0.00 0.00 45 1012.5
20260505175046 76 132 9.6 15.6 0.00 0.00 0.00 44 1012.5
20260505174824 76 188 9.6 15.6 0.00 0.00 0.00 44 1012.6
20260505174710 76 157 8.7 16.5 0.00 0.00 0.00 45 1012.6
20260505174618 76 219 8.7 16.5 0.00 0.00 0.00 43 1012.6
20260505174545 76 223 7.8 16.5 0.00 0.00 0.00 44 1012.6
20260505174412 76 258 6.1 16.5 0.00 0.00 0.00 46 1012.5
20260505174319 76 200 5.2 16.5 0.00 0.00 0.00 46 1012.6
20260505174230 76 214 4.3 16.5 0.00 0.00 0.00 46 1012.6
20260505174117 76 238 5.2 16.5 0.00 0.00 0.00 48 1012.7
20260505174026 76 181 7.0 16.5 0.00 0.00 0.00 47 1012.7
20260505173912 76 211 8.7 17.4 0.00 0.00 0.00 46 1012.7
20260505173820 76 180 8.7 17.4 0.00 0.00 0.00 47 1012.7
20260505173746 76 194 9.6 17.4 0.00 0.00 0.00 46 1012.7
20260505173637 76 177 7.8 17.4 0.00 0.00 0.00 49 1012.7
20260505173607 76 145 7.0 10.4 0.00 0.00 0.00 46 1012.7
20260505173320 76 240 7.0 10.4 0.00 0.00 0.00 46 1012.7
20260505173228 76 214 7.8 12.2 0.00 0.00 0.00 46 1012.8
20260505173115 76 186 7.8 13.9 0.00 0.00 0.00 46 1012.8
20260505173026 76 197 7.0 13.9 0.00 0.00 0.00 46 1012.8
20260505172913 76 187 6.1 13.9 0.00 0.00 0.00 45 1012.8
20260505172822 76 205 7.0 13.9 0.00 0.00 0.00 46 1012.8
20260505172749 76 267 7.0 13.9 0.00 0.00 0.00 46 1012.8
20260505172615 76 267 6.1 13.9 0.00 0.00 0.00 45 1012.8
20260505172523 76 165 7.8 17.4 0.00 0.00 0.00 45 1012.8
20260505172434 76 175 9.6 17.4 0.00 0.00 0.00 44 1012.8
20260505172321 76 211 9.6 17.4 0.00 0.00 0.00 45 1012.8
20260505172227 76 206 7.8 17.4 0.00 0.00 0.00 45 1012.9
20260505172115 76 247 7.0 17.4 0.00 0.00 0.00 44 1012.8
20260505172051 76 211 7.0 17.4 0.00 0.00 0.00 43 1012.8
20260505171844 76 246 7.8 17.4 0.00 0.00 0.00 43 1012.9
20260505171710 76 199 7.8 17.4 0.00 0.00 0.00 44 1013.0
20260505171617 76 186 7.8 12.2 0.00 0.00 0.00 44 1013.0
20260505171526 76 206 8.7 12.2 0.00 0.00 0.00 44 1013.0
20260505171413 77 276 7.0 13.0 0.00 0.00 0.00 46 1013.0
20260505171325 77 228 5.2 12.2 0.00 0.00 0.00 46 1013.0
20260505171232 77 204 7.0 12.2 0.00 0.00 0.00 46 1013.0
20260505171120 77 329 7.0 12.2 0.00 0.00 0.00 48 1013.0
20260505171028 77 184 5.2 12.2 0.00 0.00 0.00 50 1013.1
20260505170915 76 142 6.1 12.2 0.00 0.00 0.00 48 1013.0
20260505170843 76 196 7.8 12.2 0.00 0.00 0.00 48 1013.0
20260505170714 76 249 9.6 14.8 0.00 0.00 0.00 50 1013.1
20260505170621 76 179 7.8 13.9 0.00 0.00 0.00 48 1013.1
20260505170551 76 121 6.1 13.9 0.00 0.00 0.00 48 1013.0
20260505170324 76 195 5.2 12.2 0.00 0.00 0.00 48 1013.2
20260505170210 76 151 6.1 12.2 0.00 0.00 0.00 51 1013.3
20260505170122 76 197 6.1 12.2 0.00 0.00 0.00 49 1013.3
20260505170029 76 208 5.2 12.2 0.00 0.00 0.00 49 1013.3
20260505165936 76 113 7.0 12.2 0.00 0.00 0.00 48 1013.3
20260505165821 76 188 7.8 12.2 0.00 0.00 0.00 48 1013.3
20260505165747 76 214 7.8 14.8 0.00 0.00 0.00 50 1013.3
20260505165614 76 175 7.0 14.8 0.00 0.00 0.00 49 1013.2
20260505165541 76 152 6.1 14.8 0.00 0.00 0.00 49 1013.2
20260505165412 76 163 7.0 14.8 0.00 0.00 0.00 50 1013.2
20260505165318 76 155 7.0 14.8 0.00 0.00 0.00 49 1013.2
20260505165225 76 132 7.8 14.8 0.00 0.00 0.00 49 1013.2
20260505165112 76 165 7.0 14.8 0.00 0.00 0.00 50 1013.2
20260505165049 76 149 7.0 14.8 0.00 0.00 0.00 50 1013.2
20260505164823 75 142 7.0 14.8 0.00 0.00 0.00 50 1013.4
20260505164729 75 172 7.0 12.2 0.00 0.00 0.00 50 1013.4
20260505164617 75 188 8.7 12.2 0.00 0.00 0.00 50 1013.4
20260505164523 75 215 8.7 12.2 0.00 0.00 0.00 50 1013.4
20260505164410 75 189 7.8 12.2 0.00 0.00 0.00 51 1013.5
20260505164321 75 190 7.0 12.2 0.00 0.00 0.00 50 1013.5
20260505164229 75 188 6.1 12.2 0.00 0.00 0.00 51 1013.4
20260505164116 75 140 7.0 12.2 0.00 0.00 0.00 51 1013.3
20260505164025 75 173 7.8 11.3 0.00 0.00 0.00 51 1013.3
20260505163912 75 158 7.0 14.8 0.00 0.00 0.00 52 1013.3
20260505163823 75 157 7.0 14.8 0.00 0.00 0.00 54 1013.3
20260505163711 75 194 6.1 14.8 0.00 0.00 0.00 56 1013.2
20260505163618 74 161 6.1 14.8 0.00 0.00 0.00 57 1013.2
20260505163548 74 153 7.0 14.8 0.00 0.00 0.00 54 1013.2
20260505163322 74 200 7.0 14.8 0.00 0.00 0.00 54 1013.4
20260505163213 74 223 7.0 14.8 0.00 0.00 0.00 54 1013.3
20260505163121 74 196 8.7 14.8 0.00 0.00 0.00 55 1013.3
20260505163048 74 171 7.8 13.9 0.00 0.00 0.00 54 1013.3
20260505162915 74 188 5.2 12.2 0.00 0.00 0.00 55 1013.4
20260505162822 74 232 5.2 11.3 0.00 0.00 0.00 54 1013.4
20260505162715 74 187 5.2 11.3 0.00 0.00 0.00 55 1013.5
20260505162624 74 217 4.3 11.3 0.00 0.00 0.00 56 1013.5
20260505162511 74 182 6.1 11.3 0.00 0.00 0.00 55 1013.4
20260505162420 74 199 7.0 11.3 0.00 0.00 0.00 56 1013.4
20260505162328 74 213 7.0 11.3 0.00 0.00 0.00 54 1013.4
20260505162235 74 159 7.0 12.2 0.00 0.00 0.00 55 1013.3
20260505162126 74 234 7.0 12.2 0.00 0.00 0.00 54 1013.3
20260505162056 74 209 7.0 13.9 0.00 0.00 0.00 55 1013.4
20260505161851 74 163 6.1 13.9 0.00 0.00 0.00 55 1013.4
20260505161716 74 234 7.0 13.9 0.00 0.00 0.00 56 1013.5
20260505161624 74 194 7.0 13.9 0.00 0.00 0.00 55 1013.5
20260505161515 74 223 6.1 13.9 0.00 0.00 0.00 54 1013.4
20260505161443 74 203 7.8 13.9 0.00 0.00 0.00 54 1013.4
20260505161310 74 174 7.8 13.9 0.00 0.00 0.00 54 1013.4
20260505161217 74 200 6.1 13.9 0.00 0.00 0.00 56 1013.4
20260505161124 74 204 5.2 12.2 0.00 0.00 0.00 56 1013.4
20260505161031 74 200 7.0 13.9 0.00 0.00 0.00 55 1013.2
20260505160923 74 205 7.0 13.9 0.00 0.00 0.00 55 1013.2
20260505160810 74 198 7.0 13.9 0.00 0.00 0.00 55 1013.3
20260505160737 74 225 7.0 13.9 0.00 0.00 0.00 55 1013.2
20260505160623 74 206 6.1 13.9 0.00 0.00 0.00 55 1013.2
20260505160551 74 251 6.1 13.9 0.00 0.00 0.00 55 1013.2
20260505160345 74 221 7.8 13.9 0.00 0.00 0.00 54 1013.2
20260505160235 74 197 7.8 13.9 0.00 0.00 0.00 54 1013.3
20260505160122 74 180 7.0 14.8 0.00 0.00 0.00 54 1013.3
20260505153321 72 184 6.1 11.3 0.00 0.00 0.00 56 1013.4
20260505153211 72 171 5.2 10.4 0.00 0.00 0.00 55 1013.3
20260505153119 72 186 5.2 10.4 0.00 0.00 0.00 55 1013.2
20260505153025 72 198 6.1 10.4 0.00 0.00 0.00 55 1013.2
20260505152914 72 259 6.1 10.4 0.00 0.00 0.00 55 1013.2
20260505152822 72 195 5.2 9.6 0.00 0.00 0.00 55 1013.2
20260505152712 72 287 4.3 9.6 0.00 0.00 0.00 60 1013.2
20260505152620 72 204 4.3 9.6 0.00 0.00 0.00 59 1013.2
20260505152527 72 175 4.3 9.6 0.00 0.00 0.00 58 1013.2
20260505152414 72 196 5.2 9.6 0.00 0.00 0.00 58 1013.2
20260505152323 72 175 5.2 9.6 0.00 0.00 0.00 57 1013.2
20260505152230 72 188 5.2 9.6 0.00 0.00 0.00 56 1013.2
20260505152157 72 189 6.1 9.6 0.00 0.00 0.00 56 1013.3
20260505152111 72 184 6.1 10.4 0.00 0.00 0.00 59 1013.1
20260505151823 72 191 6.1 9.6 0.00 0.00 0.00 58 1013.2
20260505151712 72 167 5.2 8.7 0.00 0.00 0.00 58 1013.2
20260505151638 72 182 5.2 8.7 0.00 0.00 0.00 59 1013.3
20260505151524 72 183 4.3 10.4 0.00 0.00 0.00 59 1013.3
20260505151415 72 238 4.3 10.4 0.00 0.00 0.00 60 1013.3
20260505151323 72 178 5.2 10.4 0.00 0.00 0.00 60 1013.3
20260505151250 72 199 5.2 9.6 0.00 0.00 0.00 61 1013.3
20260505151117 71 178 5.2 9.6 0.00 0.00 0.00 60 1013.3
20260505151023 71 192 4.3 9.6 0.00 0.00 0.00 62 1013.3
20260505150931 71 208 5.2 9.6 0.00 0.00 0.00 62 1013.2
20260505150820 71 112 7.0 9.6 0.00 0.00 0.00 62 1013.2
20260505150748 71 138 7.0 9.6 0.00 0.00 0.00 62 1013.2
20260505150614 71 123 7.0 10.4 0.00 0.00 0.00 62 1013.2
20260505150544 71 117 6.1 9.6 0.00 0.00 0.00 63 1013.2
20260505150315 71 221 3.5 9.6 0.00 0.00 0.00 65 1013.4
20260505150248 71 155 3.5 9.6 0.00 0.00 0.00 64 1013.4
20260505150134 71 178 3.5 9.6 0.00 0.00 0.00 63 1013.5
20260505140625 66 214 5.2 10.4 0.00 0.00 0.00 71 1013.4
20260505140601 66 180 5.2 10.4 0.00 0.00 0.00 70 1013.5
20260505140335 66 156 7.0 10.4 0.00 0.00 0.00 70 1013.5
20260505140221 66 177 7.0 10.4 0.00 0.00 0.00 70 1013.5
20260505140128 66 213 6.1 11.3 0.00 0.00 0.00 70 1013.5
20260505130223 64 138 5.2 8.7 0.00 0.00 0.00 72 1013.5
20260505130111 63 202 4.3 9.6 0.00 0.00 0.00 73 1013.4
20260505124816 63 189 5.2 7.8 0.00 0.00 0.00 72 1013.1
20260505124744 63 188 5.2 7.8 0.00 0.00 0.00 73 1013.1
20260505124610 63 178 5.2 7.8 0.00 0.00 0.00 72 1013.0
20260505124515 63 173 4.3 8.7 0.00 0.00 0.00 73 1013.0
20260505124441 63 167 4.3 7.0 0.00 0.00 0.00 73 1013.0
20260505124327 63 174 3.5 7.0 0.00 0.00 0.00 72 1013.1
20260505124214 63 143 3.5 7.0 0.00 0.00 0.00 73 1013.1
20260505124127 63 146 3.5 7.0 0.00 0.00 0.00 73 1013.1
20260505124013 63 134 2.6 7.0 0.00 0.00 0.00 73 1013.1
20260505123919 63 169 2.6 7.0 0.00 0.00 0.00 73 1013.1
20260505123827 62 156 3.5 7.0 0.00 0.00 0.00 73 1013.1
20260505123715 62 152 3.5 7.0 0.00 0.00 0.00 73 1013.1
20260505123623 62 138 2.6 7.0 0.00 0.00 0.00 73 1013.1
20260505123558 62 173 2.6 6.1 0.00 0.00 0.00 74 1013.2
20260505123311 62 200 3.5 6.1 0.00 0.00 0.00 74 1013.1
20260505123238 62 191 3.5 6.1 0.00 0.00 0.00 74 1013.1
20260505123125 62 182 4.3 7.8 0.00 0.00 0.00 74 1013.1
20260505123017 62 155 4.3 7.8 0.00 0.00 0.00 75 1013.1
20260505122925 62 117 3.5 7.8 0.00 0.00 0.00 74 1013.1
20260505122811 62 168 1.7 7.8 0.00 0.00 0.00 75 1013.0
20260505122739 61 190 2.6 7.8 0.00 0.00 0.00 75 1013.1
20260505122624 61 144 2.6 7.8 0.00 0.00 0.00 75 1013.1
20260505122510 61 175 3.5 7.8 0.00 0.00 0.00 76 1013.1
20260505122420 61 149 4.3 7.8 0.00 0.00 0.00 75 1013.1
20260505122328 61 134 3.5 7.8 0.00 0.00 0.00 75 1013.1
20260505122235 61 149 2.6 6.1 0.00 0.00 0.00 75 1013.1
20260505122122 61 157 2.6 6.1 0.00 0.00 0.00 75 1013.1
20260505122053 61 147 2.6 6.1 0.00 0.00 0.00 76 1013.1
20260505121810 60 148 2.6 6.1 0.00 0.00 0.00 76 1013.0
20260505121717 60 190 2.6 6.1 0.00 0.00 0.00 76 1013.1
20260505121625 60 150 3.5 6.1 0.00 0.00 0.00 76 1013.1
20260505121512 60 186 3.5 5.2 0.00 0.00 0.00 77 1013.1
20260505121439 60 153 3.5 5.2 0.00 0.00 0.00 77 1013.1
20260505121325 60 159 2.6 5.2 0.00 0.00 0.00 77 1013.1
20260505121217 60 156 2.6 5.2 0.00 0.00 0.00 77 1013.1
20260505121124 60 163 2.6 5.2 0.00 0.00 0.00 77 1013.1
20260505121011 59 192 2.6 3.5 0.00 0.00 0.00 78 1013.0
20260505120919 59 170 2.6 4.3 0.00 0.00 0.00 78 1012.9
20260505120825 59 157 2.6 4.3 0.00 0.00 0.00 78 1012.9
20260505120718 59 142 1.7 4.3 0.00 0.00 0.00 78 1013.0
20260505120646 59 117 0.9 4.3 0.00 0.00 0.00 78 1013.0
20260505120616 59 156 1.7 4.3 0.00 0.00 0.00 77 1013.0
20260505120310 59 189 2.6 4.3 0.00 0.00 0.00 77 1013.1
20260505120218 59 182 2.6 4.3 0.00 0.00 0.00 77 1013.1
20260505120129 59 207 2.6 4.3 0.00 0.00 0.00 77 1013.1
20260505120036 59 198 2.6 4.3 0.00 0.00 0.00 77 1013.1
20260505115923 59 171 2.6 4.3 0.00 0.00 0.00 77 1013.1
20260505115810 59 182 1.7 2.6 0.00 0.00 0.00 77 1013.1
20260505115717 59 178 1.7 2.6 0.00 0.00 0.00 77 1013.0
20260505115624 59 178 1.7 2.6 0.00 0.00 0.00 77 1013.0
20260505115535 59 154 0.9 2.6 0.00 0.00 0.00 77 1013.0
20260505115422 59 184 0.9 2.6 0.00 0.00 0.00 77 1013.0
20260505115310 59 168 0.9 4.3 0.00 0.00 0.00 77 1013.0
20260505115217 59 169 1.7 4.3 0.00 0.00 0.00 77 1012.9
20260505115125 59 170 1.7 4.3 0.00 0.00 0.00 77 1012.9
20260505115100 59 173 1.7 4.3 0.00 0.00 0.00 77 1012.8
20260505114814 59 152 0.9 4.3 0.00 0.00 0.00 77 1012.8
20260505114721 59 147 0.9 4.3 0.00 0.00 0.00 77 1012.8
20260505114648 59 170 1.7 4.3 0.00 0.00 0.00 77 1012.8
20260505114534 59 178 2.6 4.3 0.00 0.00 0.00 77 1012.7
20260505114419 59 151 2.6 4.3 0.00 0.00 0.00 77 1012.7
20260505114310 59 146 1.7 4.3 0.00 0.00 0.00 77 1012.6
20260505114217 59 156 1.7 4.3 0.00 0.00 0.00 77 1012.7
20260505114125 59 182 2.6 4.3 0.00 0.00 0.00 77 1012.7
20260505114013 59 148 2.6 4.3 0.00 0.00 0.00 77 1012.6
20260505113920 59 144 1.7 4.3 0.00 0.00 0.00 77 1012.6
20260505113827 59 149 1.7 4.3 0.00 0.00 0.00 77 1012.5
20260505113758 59 143 1.7 4.3 0.00 0.00 0.00 77 1012.5
20260505113705 59 145 1.7 4.3 0.00 0.00 0.00 77 1012.4
20260505113615 59 152 1.7 4.3 0.00 0.00 0.00 77 1012.4
20260505113325 59 150 2.6 4.3 0.00 0.00 0.00 78 1012.3
20260505113233 59 142 3.5 4.3 0.00 0.00 0.00 77 1012.3
20260505113120 59 148 2.6 3.5 0.00 0.00 0.00 78 1012.3
20260505113012 59 144 1.7 3.5 0.00 0.00 0.00 78 1012.2
20260505112920 59 132 1.7 3.5 0.00 0.00 0.00 78 1012.2
20260505112828 59 135 1.7 3.5 0.00 0.00 0.00 78 1012.2
20260505112736 59 143 2.6 4.3 0.00 0.00 0.00 77 1012.2
20260505112622 59 144 2.6 4.3 0.00 0.00 0.00 77 1012.2
20260505112511 59 142 2.6 3.5 0.00 0.00 0.00 77 1012.2
20260505112423 59 135 1.7 3.5 0.00 0.00 0.00 77 1012.2
20260505112311 59 138 1.7 3.5 0.00 0.00 0.00 77 1012.1
20260505112238 58 138 1.7 3.5 0.00 0.00 0.00 77 1012.1
20260505112146 59 138 1.7 3.5 0.00 0.00 0.00 77 1012.1
20260505112054 59 137 1.7 3.5 0.00 0.00 0.00 77 1012.1
20260505111812 58 130 1.7 2.6 0.00 0.00 0.00 77 1012.1
20260505111719 58 134 1.7 2.6 0.00 0.00 0.00 77 1012.2
20260505111626 58 128 1.7 2.6 0.00 0.00 0.00 77 1012.2
20260505111513 58 151 1.7 3.5 0.00 0.00 0.00 77 1012.2
20260505111421 58 151 1.7 3.5 0.00 0.00 0.00 77 1012.2
20260505111349 58 150 1.7 3.5 0.00 0.00 0.00 77 1012.3
20260505111239 58 144 1.7 3.5 0.00 0.00 0.00 77 1012.2
20260505111126 58 143 1.7 3.5 0.00 0.00 0.00 77 1012.2
20260505111012 58 153 1.7 3.5 0.00 0.00 0.00 77 1012.2
20260505110919 58 148 1.7 3.5 0.00 0.00 0.00 77 1012.2
20260505110826 58 145 1.7 3.5 0.00 0.00 0.00 77 1012.2
20260505110714 58 143 1.7 3.5 0.00 0.00 0.00 77 1012.1
20260505110645 58 111 1.7 3.5 0.00 0.00 0.00 77 1012.1
20260505110555 58 142 1.7 3.5 0.00 0.00 0.00 77 1012.1
20260505110348 58 146 0.9 2.6 0.00 0.00 0.00 77 1012.0
20260505110215 58 146 0.9 2.6 0.00 0.00 0.00 77 1012.0
20260505110122 58 146 0.9 2.6 0.00 0.00 0.00 77 1012.0
20260505102215 59 174 3.5 5.2 0.00 0.00 0.00 75 1011.6
20260505102121 59 173 3.5 5.2 0.00 0.00 0.00 75 1011.6
20260505102055 59 177 2.6 5.2 0.00 0.00 0.00 75 1011.8
20260505101809 59 202 2.6 5.2 0.00 0.00 0.00 74 1011.7
20260505101717 59 180 2.6 5.2 0.00 0.00 0.00 74 1011.6
20260505101643 59 186 2.6 5.2 0.00 0.00 0.00 74 1011.6
20260505101529 59 197 2.6 5.2 0.00 0.00 0.00 74 1011.5
20260505101437 59 170 3.5 5.2 0.00 0.00 0.00 74 1011.6
20260505101326 59 178 3.5 5.2 0.00 0.00 0.00 74 1011.6
20260505101215 59 216 2.6 4.3 0.00 0.00 0.00 74 1011.5
20260505101122 59 159 3.5 4.3 0.00 0.00 0.00 74 1011.5
20260505101010 59 180 3.5 4.3 0.00 0.00 0.00 74 1011.4
20260505100918 59 169 3.5 5.2 0.00 0.00 0.00 74 1011.4
20260505100824 59 182 2.6 5.2 0.00 0.00 0.00 74 1011.4
20260505100715 59 184 2.6 5.2 0.00 0.00 0.00 74 1011.4
20260505100624 59 171 1.7 5.2 0.00 0.00 0.00 74 1011.4
20260505100555 59 167 1.7 5.2 0.00 0.00 0.00 74 1011.4
20260505100328 59 210 2.6 5.2 0.00 0.00 0.00 74 1011.4
20260505100220 59 202 3.5 5.2 0.00 0.00 0.00 74 1011.5
20260505100128 59 180 3.5 5.2 0.00 0.00 0.00 74 1011.4
20260505100016 59 182 2.6 5.2 0.00 0.00 0.00 73 1011.5
20260505095924 59 171 2.6 5.2 0.00 0.00 0.00 73 1011.5
20260505095813 59 173 3.5 5.2 0.00 0.00 0.00 73 1011.6
20260505095724 59 194 2.6 5.2 0.00 0.00 0.00 73 1011.6
20260505095611 59 195 1.7 3.5 0.00 0.00 0.00 73 1011.5
20260505095518 59 189 1.7 3.5 0.00 0.00 0.00 73 1011.5
20260505095427 59 186 1.7 3.5 0.00 0.00 0.00 73 1011.5
20260505095313 59 201 1.7 3.5 0.00 0.00 0.00 73 1011.4
20260505095241 59 188 1.7 3.5 0.00 0.00 0.00 73 1011.4
20260505095131 59 198 1.7 3.5 0.00 0.00 0.00 73 1011.4
20260505095101 59 142 1.7 3.5 0.00 0.00 0.00 73 1011.4
20260505094815 59 200 0.9 3.5 0.00 0.00 0.00 73 1011.4
20260505094722 59 169 1.7 4.3 0.00 0.00 0.00 73 1011.4
20260505094631 59 184 1.7 4.3 0.00 0.00 0.00 73 1011.4
20260505094541 60 145 1.7 4.3 0.00 0.00 0.00 73 1011.4
20260505094426 59 161 0.9 4.3 0.00 0.00 0.00 73 1011.3
20260505094314 60 179 0.9 4.3 0.00 0.00 0.00 72 1011.3
20260505094222 60 173 0.9 4.3 0.00 0.00 0.00 72 1011.3
20260505094110 60 169 1.7 4.3 0.00 0.00 0.00 72 1011.3
20260505094017 60 196 2.6 4.3 0.00 0.00 0.00 72 1011.4
20260505093910 60 174 2.6 4.3 0.00 0.00 0.00 72 1011.4
20260505093817 60 200 2.6 4.3 0.00 0.00 0.00 72 1011.4
20260505093725 60 193 1.7 6.1 0.00 0.00 0.00 72 1011.4
20260505093631 60 179 1.7 7.0 0.00 0.00 0.00 72 1011.3
20260505093544 60 179 2.6 7.8 0.00 0.00 0.00 72 1011.3
20260505093318 60 193 2.6 7.8 0.00 0.00 0.00 72 1011.3
20260505093225 60 167 2.6 7.8 0.00 0.00 0.00 72 1011.3
20260505093113 60 159 3.5 7.8 0.00 0.00 0.00 72 1011.2
20260505093021 60 178 3.5 7.8 0.00 0.00 0.00 72 1011.2
20260505092950 60 140 3.5 7.8 0.00 0.00 0.00 72 1011.2
20260505092819 60 231 3.5 7.8 0.00 0.00 0.00 72 1011.1
20260505092727 60 189 4.3 7.8 0.00 0.00 0.00 71 1011.2
20260505092635 60 139 5.2 7.8 0.00 0.00 0.00 72 1011.1
20260505092542 60 150 4.3 7.8 0.00 0.00 0.00 72 1011.1
20260505092428 60 180 4.3 7.8 0.00 0.00 0.00 71 1011.1
20260505092317 60 163 3.5 8.7 0.00 0.00 0.00 71 1011.1
20260505092225 60 209 3.5 8.7 0.00 0.00 0.00 71 1011.1
20260505092157 60 165 4.3 8.7 0.00 0.00 0.00 71 1011.2
20260505092106 60 161 3.5 8.7 0.00 0.00 0.00 71 1011.2
20260505091818 60 198 3.5 8.7 0.00 0.00 0.00 71 1011.2
20260505091725 60 126 4.3 8.7 0.00 0.00 0.00 71 1011.2
20260505091612 60 165 4.3 8.7 0.00 0.00 0.00 71 1011.2
20260505091524 60 184 4.3 8.7 0.00 0.00 0.00 71 1011.2
20260505091433 60 140 3.5 7.8 0.00 0.00 0.00 71 1011.3
20260505091320 60 191 4.3 7.8 0.00 0.00 0.00 71 1011.3
20260505091228 60 178 3.5 7.8 0.00 0.00 0.00 72 1011.2
20260505091115 60 150 2.6 5.2 0.00 0.00 0.00 71 1011.4
20260505091022 60 176 2.6 5.2 0.00 0.00 0.00 71 1011.4
20260505090913 60 178 2.6 5.2 0.00 0.00 0.00 71 1011.4
20260505090821 60 162 2.6 6.1 0.00 0.00 0.00 71 1011.4
20260505090729 60 168 2.6 5.2 0.00 0.00 0.00 72 1011.4
20260505090616 60 162 2.6 5.2 0.00 0.00 0.00 72 1011.3
20260505090551 60 158 3.5 5.2 0.00 0.00 0.00 71 1011.3
20260505090325 60 153 3.5 6.1 0.00 0.00 0.00 71 1011.4
20260505090233 60 179 3.5 5.2 0.00 0.00 0.00 71 1011.4
20260505090119 60 178 2.6 5.2 0.00 0.00 0.00 71 1011.4
20260505090025 60 199 2.6 4.3 0.00 0.00 0.00 71 1011.4
20260505085913 60 192 2.6 5.2 0.00 0.00 0.00 71 1011.3
20260505085844 60 182 2.6 5.2 0.00 0.00 0.00 71 1011.3
20260505085710 60 188 2.6 5.2 0.00 0.00 0.00 71 1011.2
20260505085619 59 193 2.6 5.2 0.00 0.00 0.00 72 1011.2
20260505085526 59 164 2.6 5.2 0.00 0.00 0.00 72 1011.2
20260505085413 59 147 2.6 5.2 0.00 0.00 0.00 72 1011.3
20260505085320 59 142 2.6 5.2 0.00 0.00 0.00 72 1011.3
20260505085212 59 129 2.6 5.2 0.00 0.00 0.00 72 1011.3
20260505085119 59 173 2.6 5.2 0.00 0.00 0.00 72 1011.3
20260505085050 59 161 2.6 5.2 0.00 0.00 0.00 72 1011.3
20260505084824 59 175 2.6 5.2 0.00 0.00 0.00 72 1011.4
20260505084716 59 176 1.7 4.3 0.00 0.00 0.00 71 1011.3
20260505084624 59 183 1.7 4.3 0.00 0.00 0.00 72 1011.3
20260505084511 59 188 2.6 4.3 0.00 0.00 0.00 72 1011.4
20260505084438 59 181 2.6 4.3 0.00 0.00 0.00 72 1011.5
20260505084323 59 171 2.6 4.3 0.00 0.00 0.00 72 1011.5
20260505084211 59 156 2.6 4.3 0.00 0.00 0.00 72 1011.4
20260505084139 59 166 2.6 4.3 0.00 0.00 0.00 72 1011.4
20260505084028 59 204 2.6 4.3 0.00 0.00 0.00 72 1011.4
20260505083934 59 202 2.6 4.3 0.00 0.00 0.00 72 1011.4
20260505083821 59 190 2.6 4.3 0.00 0.00 0.00 72 1011.4
20260505083726 59 182 3.5 4.3 0.00 0.00 0.00 72 1011.4
20260505083614 59 178 2.6 4.3 0.00 0.00 0.00 72 1011.4
20260505083548 59 211 2.6 4.3 0.00 0.00 0.00 72 1011.4
20260505083341 59 177 2.6 4.3 0.00 0.00 0.00 72 1011.4
20260505083228 59 184 2.6 4.3 0.00 0.00 0.00 72 1011.4
20260505083136 59 183 2.6 4.3 0.00 0.00 0.00 72 1011.4
20260505083023 59 175 1.7 4.3 0.00 0.00 0.00 72 1011.4
20260505082910 59 207 2.6 4.3 0.00 0.00 0.00 72 1011.5
20260505082822 59 185 2.6 4.3 0.00 0.00 0.00 72 1011.5
20260505082709 59 172 3.5 4.3 0.00 0.00 0.00 72 1011.4
20260505082618 59 202 2.6 4.3 0.00 0.00 0.00 72 1011.5
20260505082526 59 196 2.6 4.3 0.00 0.00 0.00 72 1011.5
20260505082414 59 187 2.6 4.3 0.00 0.00 0.00 72 1011.3
20260505082343 59 183 1.7 5.2 0.00 0.00 0.00 72 1011.3
20260505082212 59 177 2.6 5.2 0.00 0.00 0.00 72 1011.4
20260505082140 59 180 2.6 4.3 0.00 0.00 0.00 72 1011.4
20260505082049 59 178 2.6 4.3 0.00 0.00 0.00 72 1011.4
20260505081824 59 153 1.7 3.5 0.00 0.00 0.00 72 1011.3
20260505081717 59 171 1.7 2.6 0.00 0.00 0.00 72 1011.3
20260505081624 59 171 1.7 2.6 0.00 0.00 0.00 72 1011.3
20260505081511 59 151 1.7 2.6 0.00 0.00 0.00 73 1011.4
20260505081418 59 151 1.7 2.6 0.00 0.00 0.00 73 1011.4
20260505081327 59 151 1.7 2.6 0.00 0.00 0.00 73 1011.4
20260505081215 59 151 1.7 2.6 0.00 0.00 0.00 72 1011.5
20260505081126 59 164 1.7 3.5 0.00 0.00 0.00 73 1011.5
20260505081012 59 153 1.7 2.6 0.00 0.00 0.00 73 1011.5
20260505080921 59 157 1.7 2.6 0.00 0.00 0.00 73 1011.5
20260505080848 59 157 1.7 2.6 0.00 0.00 0.00 73 1011.5
20260505080715 59 157 1.7 2.6 0.00 0.00 0.00 73 1011.6
20260505080555 59 157 1.7 2.6 0.00 0.00 0.00 73 1011.6
20260505080349 59 157 1.7 2.6 0.00 0.00 0.00 73 1011.7
20260505080215 59 157 1.7 2.6 0.00 0.00 0.00 73 1011.6
20260505080123 60 157 1.7 2.6 0.00 0.00 0.00 73 1011.6
20260505080030 60 157 1.7 2.6 0.00 0.00 0.00 73 1011.7
20260505075942 60 157 0.9 2.6 0.00 0.00 0.00 72 1011.7
20260505075829 60 157 0.9 2.6 0.00 0.00 0.00 73 1011.7
20260505075717 60 157 0.9 2.6 0.00 0.00 0.00 72 1011.7
20260505075645 60 157 1.7 2.6 0.00 0.00 0.00 72 1011.7
20260505075512 60 157 1.7 2.6 0.00 0.00 0.00 72 1011.7
20260505075419 60 157 0.9 2.6 0.00 0.00 0.00 72 1011.7
20260505075310 60 157 0.9 2.6 0.00 0.00 0.00 72 1011.7
20260505075218 60 157 0.9 2.6 0.00 0.00 0.00 72 1011.7
20260505075125 60 152 0.9 2.6 0.00 0.00 0.00 72 1011.7
20260505075056 60 152 0.9 2.6 0.00 0.00 0.00 72 1011.6
20260505074813 60 152 1.7 2.6 0.00 0.00 0.00 72 1011.8
20260505074740 60 147 1.7 2.6 0.00 0.00 0.00 71 1011.8
20260505074626 60 162 1.7 2.6 0.00 0.00 0.00 71 1011.8
20260505074513 60 166 0.9 2.6 0.00 0.00 0.00 71 1011.8
20260505074421 60 156 0.9 2.6 0.00 0.00 0.00 71 1011.8
20260505074328 60 165 0.9 3.5 0.00 0.00 0.00 71 1011.9
20260505074220 60 164 0.9 4.3 0.00 0.00 0.00 71 1011.8
20260505074147 60 173 0.9 4.3 0.00 0.00 0.00 71 1011.8
20260505074014 60 180 1.7 4.3 0.00 0.00 0.00 71 1011.9
20260505073922 60 177 0.9 5.2 0.00 0.00 0.00 71 1011.9
20260505073811 60 172 0.9 5.2 0.00 0.00 0.00 71 1012.0
20260505073739 60 182 1.7 5.2 0.00 0.00 0.00 71 1012.1
20260505073625 60 184 2.6 5.2 0.00 0.00 0.00 71 1012.1
20260505073559 60 171 2.6 6.1 0.00 0.00 0.00 71 1012.0
20260505073313 60 192 3.5 6.1 0.00 0.00 0.00 71 1012.0
20260505073222 60 193 3.5 6.1 0.00 0.00 0.00 71 1012.0
20260505073149 60 197 2.6 6.1 0.00 0.00 0.00 71 1012.1
20260505073020 60 208 2.6 6.1 0.00 0.00 0.00 71 1012.0
20260505072928 60 180 2.6 6.1 0.00 0.00 0.00 71 1012.1
20260505072835 60 187 3.5 6.1 0.00 0.00 0.00 71 1012.1
20260505072720 60 177 2.6 6.1 0.00 0.00 0.00 71 1012.1
20260505072648 60 200 1.7 3.5 0.00 0.00 0.00 71 1012.1
20260505072534 60 187 1.7 3.5 0.00 0.00 0.00 71 1012.1
20260505072420 60 194 1.7 3.5 0.00 0.00 0.00 71 1012.1
20260505072311 60 197 1.7 3.5 0.00 0.00 0.00 71 1012.1
20260505072219 60 200 1.7 3.5 0.00 0.00 0.00 71 1012.1
20260505072126 60 200 1.7 3.5 0.00 0.00 0.00 71 1012.1
20260505072056 60 200 1.7 3.5 0.00 0.00 0.00 71 1012.0
20260505071814 60 198 1.7 3.5 0.00 0.00 0.00 71 1012.1
20260505071721 60 201 1.7 3.5 0.00 0.00 0.00 71 1012.1
20260505071609 60 198 1.7 3.5 0.00 0.00 0.00 71 1012.0
20260505071517 60 197 1.7 3.5 0.00 0.00 0.00 71 1012.0
20260505071423 60 182 1.7 3.5 0.00 0.00 0.00 71 1012.0
20260505071311 60 196 1.7 3.5 0.00 0.00 0.00 71 1011.9
20260505071223 60 188 1.7 3.5 0.00 0.00 0.00 71 1011.9
20260505071110 60 178 1.7 3.5 0.00 0.00 0.00 71 1012.0
20260505071018 60 163 1.7 3.5 0.00 0.00 0.00 71 1012.0
20260505070925 60 180 1.7 2.6 0.00 0.00 0.00 71 1012.0
20260505070811 60 170 0.9 2.6 0.00 0.00 0.00 71 1011.9
20260505070724 60 178 0.9 2.6 0.00 0.00 0.00 71 1011.9
20260505070652 60 178 0.9 2.6 0.00 0.00 0.00 71 1012.0
20260505070559 60 176 0.9 1.7 0.00 0.00 0.00 71 1012.0
20260505070313 60 179 0.9 1.7 0.00 0.00 0.00 71 1012.0
20260505070222 60 179 0.9 1.7 0.00 0.00 0.00 71 1012.0
20260505070112 60 179 0.9 1.7 0.00 0.00 0.00 71 1012.0
20260505070021 60 179 0.9 1.7 0.00 0.00 0.00 71 1012.0
20260505065928 60 179 0.9 1.7 0.00 0.00 0.00 71 1012.0
20260505065815 60 179 0.9 1.7 0.00 0.00 0.00 71 1012.0
20260505065723 60 181 0.9 1.7 0.00 0.00 0.00 71 1012.0
20260505065614 60 181 0.9 1.7 0.00 0.00 0.00 71 1012.0
20260505065522 60 181 0.9 1.7 0.00 0.00 0.00 71 1012.0
20260505065428 60 181 0.9 1.7 0.00 0.00 0.00 71 1012.0
20260505065317 60 164 0.9 1.7 0.00 0.00 0.00 72 1012.0
20260505065224 60 164 0.9 1.7 0.00 0.00 0.00 72 1012.0
20260505065132 60 164 0.9 1.7 0.00 0.00 0.00 72 1012.0
20260505065107 60 164 0.9 1.7 0.00 0.00 0.00 72 1012.0
20260505064820 60 164 0.9 1.7 0.00 0.00 0.00 72 1012.0
20260505064728 60 164 0.9 1.7 0.00 0.00 0.00 71 1012.0
20260505064615 60 164 0.9 1.7 0.00 0.00 0.00 72 1012.1
20260505064541 60 164 0.9 1.7 0.00 0.00 0.00 72 1012.1
20260505064411 60 164 0.9 1.7 0.00 0.00 0.00 71 1012.0
20260505064319 60 164 0.9 1.7 0.00 0.00 0.00 71 1012.0
20260505064227 60 164 0.0 1.7 0.00 0.00 0.00 71 1012.1
20260505064115 60 164 0.0 1.7 0.00 0.00 0.00 71 1012.0
20260505064023 60 164 0.0 1.7 0.00 0.00 0.00 71 1012.0
20260505063915 60 164 0.0 1.7 0.00 0.00 0.00 71 1012.1
20260505063822 60 164 0.0 1.7 0.00 0.00 0.00 71 1012.1
20260505063728 60 164 0.9 1.7 0.00 0.00 0.00 71 1012.0
20260505063616 60 164 0.9 1.7 0.00 0.00 0.00 71 1012.0
20260505063546 60 164 0.9 1.7 0.00 0.00 0.00 71 1012.0
20260505063323 60 170 0.9 1.7 0.00 0.00 0.00 71 1012.1
20260505063210 60 170 0.0 1.7 0.00 0.00 0.00 71 1012.1
20260505063117 60 170 0.0 1.7 0.00 0.00 0.00 71 1012.1
20260505063045 60 170 0.9 1.7 0.00 0.00 0.00 71 1012.1
20260505062912 60 181 0.9 1.7 0.00 0.00 0.00 71 1012.2
20260505062840 61 196 0.0 1.7 0.00 0.00 0.00 71 1012.2
20260505062711 61 196 0.0 0.9 0.00 0.00 0.00 71 1012.1
20260505062618 61 196 0.0 0.9 0.00 0.00 0.00 71 1012.1
20260505062527 61 196 0.0 0.9 0.00 0.00 0.00 71 1012.1
20260505062413 61 196 0.0 0.9 0.00 0.00 0.00 71 1012.2
20260505062321 61 196 0.0 1.7 0.00 0.00 0.00 70 1012.2
20260505062248 61 196 0.0 1.7 0.00 0.00 0.00 70 1012.2
20260505062134 61 196 0.0 1.7 0.00 0.00 0.00 70 1012.2
20260505062047 61 196 0.0 1.7 0.00 0.00 0.00 70 1012.2
20260505061821 61 196 0.0 2.6 0.00 0.00 0.00 70 1012.2
20260505061750 61 196 0.0 2.6 0.00 0.00 0.00 70 1012.1
20260505061617 61 196 0.0 2.6 0.00 0.00 0.00 70 1012.2
20260505061509 61 196 0.0 2.6 0.00 0.00 0.00 70 1012.2
20260505061418 61 196 0.9 2.6 0.00 0.00 0.00 70 1012.3
20260505061326 61 196 0.9 2.6 0.00 0.00 0.00 69 1012.3
20260505061214 61 187 0.9 2.6 0.00 0.00 0.00 69 1012.3
20260505061122 61 187 0.9 2.6 0.00 0.00 0.00 69 1012.3
20260505061049 61 196 0.9 1.7 0.00 0.00 0.00 69 1012.2
20260505060920 61 199 0.9 1.7 0.00 0.00 0.00 69 1012.3
20260505060849 61 199 0.9 1.7 0.00 0.00 0.00 69 1012.2
20260505060715 61 199 0.9 1.7 0.00 0.00 0.00 69 1012.3
20260505060622 61 199 0.9 1.7 0.00 0.00 0.00 69 1012.3
20260505060553 61 199 0.9 1.7 0.00 0.00 0.00 69 1012.2
20260505060331 62 186 0.9 1.7 0.00 0.00 0.00 69 1012.2
20260505060218 62 190 0.0 1.7 0.00 0.00 0.00 69 1012.2
20260505060147 62 190 0.0 2.6 0.00 0.00 0.00 69 1012.2
20260505060014 62 190 0.0 2.6 0.00 0.00 0.00 69 1012.2
20260505055920 62 190 0.0 2.6 0.00 0.00 0.00 68 1012.2
20260505055828 62 190 0.0 2.6 0.00 0.00 0.00 68 1012.2
20260505055720 62 190 0.0 2.6 0.00 0.00 0.00 68 1012.2
20260505055627 62 190 0.9 2.6 0.00 0.00 0.00 68 1012.2
20260505055512 62 190 0.9 2.6 0.00 0.00 0.00 68 1012.2
20260505055420 62 190 0.9 2.6 0.00 0.00 0.00 68 1012.2
20260505055328 62 194 0.9 3.5 0.00 0.00 0.00 68 1012.2
20260505055236 62 186 0.9 3.5 0.00 0.00 0.00 68 1012.3
20260505055126 62 186 0.0 3.5 0.00 0.00 0.00 68 1012.3
20260505055056 62 186 0.0 3.5 0.00 0.00 0.00 68 1012.2
20260505054810 62 186 0.0 3.5 0.00 0.00 0.00 68 1012.3
20260505054718 62 186 0.9 3.5 0.00 0.00 0.00 68 1012.2
20260505054625 62 197 0.9 3.5 0.00 0.00 0.00 68 1012.2
20260505054518 62 197 1.7 3.5 0.00 0.00 0.00 67 1012.3
20260505054424 62 184 1.7 3.5 0.00 0.00 0.00 68 1012.3
20260505054311 62 206 1.7 3.5 0.00 0.00 0.00 68 1012.3
20260505054219 63 213 1.7 3.5 0.00 0.00 0.00 67 1012.4
20260505054126 63 199 1.7 3.5 0.00 0.00 0.00 67 1012.4
20260505054018 63 188 1.7 3.5 0.00 0.00 0.00 67 1012.3
20260505053925 63 202 1.7 3.5 0.00 0.00 0.00 67 1012.3
20260505053813 63 189 2.6 4.3 0.00 0.00 0.00 67 1012.3
20260505053721 63 196 1.7 4.3 0.00 0.00 0.00 67 1012.3
20260505053649 63 171 2.6 4.3 0.00 0.00 0.00 67 1012.3
20260505053543 63 178 2.6 4.3 0.00 0.00 0.00 67 1012.3
20260505053317 63 196 2.6 4.3 0.00 0.00 0.00 67 1012.3
20260505053225 63 178 2.6 4.3 0.00 0.00 0.00 67 1012.3
20260505053112 63 189 1.7 4.3 0.00 0.00 0.00 67 1012.3
20260505053018 63 201 1.7 4.3 0.00 0.00 0.00 67 1012.3
20260505052910 63 186 1.7 4.3 0.00 0.00 0.00 67 1012.3
20260505052819 63 155 0.9 4.3 0.00 0.00 0.00 67 1012.3
20260505052725 63 168 0.9 4.3 0.00 0.00 0.00 67 1012.3
20260505052632 63 186 1.7 4.3 0.00 0.00 0.00 67 1012.3
20260505052520 63 175 2.6 6.1 0.00 0.00 0.00 67 1012.3
20260505052449 63 201 2.6 6.1 0.00 0.00 0.00 67 1012.3
20260505052318 63 169 2.6 6.1 0.00 0.00 0.00 67 1012.3
20260505052245 63 171 2.6 6.1 0.00 0.00 0.00 67 1012.3
20260505052131 63 202 1.7 6.1 0.00 0.00 0.00 67 1012.4
20260505052102 63 178 1.7 6.1 0.00 0.00 0.00 67 1012.4
20260505051816 63 239 3.5 6.1 0.00 0.00 0.00 67 1012.4
20260505051727 63 203 4.3 6.1 0.00 0.00 0.00 66 1012.4
20260505051614 63 180 3.5 7.0 0.00 0.00 0.00 67 1012.3
20260505051543 63 167 3.5 6.1 0.00 0.00 0.00 67 1012.3
20260505051410 63 182 3.5 6.1 0.00 0.00 0.00 67 1012.3
20260505051317 63 223 3.5 6.1 0.00 0.00 0.00 67 1012.4
20260505051246 63 173 2.6 6.1 0.00 0.00 0.00 67 1012.4
20260505051116 63 174 2.6 4.3 0.00 0.00 0.00 67 1012.3
20260505051024 63 184 2.6 4.3 0.00 0.00 0.00 67 1012.3
20260505050911 63 173 1.7 5.2 0.00 0.00 0.00 67 1012.3
20260505050819 63 196 2.6 5.2 0.00 0.00 0.00 67 1012.3
20260505050726 63 199 2.6 5.2 0.00 0.00 0.00 67 1012.3
20260505050614 63 162 1.7 4.3 0.00 0.00 0.00 67 1012.4
20260505050549 63 214 1.7 3.5 0.00 0.00 0.00 67 1012.4
20260505050324 63 146 1.7 3.5 0.00 0.00 0.00 67 1012.3
20260505050231 63 166 1.7 3.5 0.00 0.00 0.00 66 1012.4
20260505050117 63 169 1.7 3.5 0.00 0.00 0.00 66 1012.3
20260505041710 65 189 3.5 6.1 0.00 0.00 0.00 63 1012.2
20260505041617 65 169 2.6 6.1 0.00 0.00 0.00 63 1012.2
20260505041524 65 172 2.6 6.1 0.00 0.00 0.00 63 1012.2
20260505041413 65 180 3.5 6.1 0.00 0.00 0.00 63 1012.2
20260505041321 65 179 3.5 6.1 0.00 0.00 0.00 63 1012.2
20260505041211 65 194 2.6 6.1 0.00 0.00 0.00 63 1012.2
20260505041119 65 206 2.6 6.1 0.00 0.00 0.00 63 1012.3
20260505041028 65 199 2.6 6.1 0.00 0.00 0.00 63 1012.3
20260505040916 65 178 2.6 6.1 0.00 0.00 0.00 63 1012.2
20260505040824 65 194 3.5 6.1 0.00 0.00 0.00 63 1012.2
20260505040712 65 188 3.5 6.1 0.00 0.00 0.00 63 1012.4
20260505040623 65 207 3.5 6.1 0.00 0.00 0.00 63 1012.4
20260505040553 65 219 3.5 5.2 0.00 0.00 0.00 63 1012.3
20260505040326 65 184 2.6 4.3 0.00 0.00 0.00 63 1012.3
20260505040213 65 208 2.6 4.3 0.00 0.00 0.00 63 1012.2
20260505040124 65 197 2.6 4.3 0.00 0.00 0.00 63 1012.2
20260505040032 65 168 2.6 4.3 0.00 0.00 0.00 62 1012.2
20260505035919 65 184 2.6 4.3 0.00 0.00 0.00 62 1012.3
20260505035845 66 191 2.6 4.3 0.00 0.00 0.00 62 1012.3
20260505035711 66 212 2.6 4.3 0.00 0.00 0.00 62 1012.2
20260505035619 66 200 2.6 5.2 0.00 0.00 0.00 62 1012.2
20260505035511 66 209 1.7 5.2 0.00 0.00 0.00 62 1012.2
20260505035418 66 176 2.6 5.2 0.00 0.00 0.00 62 1012.2
20260505035325 66 172 2.6 5.2 0.00 0.00 0.00 62 1012.2
20260505035213 66 161 2.6 5.2 0.00 0.00 0.00 62 1012.2
20260505035141 66 171 2.6 5.2 0.00 0.00 0.00 61 1012.2
20260505035054 66 200 2.6 5.2 0.00 0.00 0.00 61 1012.2
20260505034848 66 160 2.6 5.2 0.00 0.00 0.00 61 1012.2
20260505034714 66 200 2.6 5.2 0.00 0.00 0.00 61 1012.3
20260505034622 66 201 2.6 5.2 0.00 0.00 0.00 61 1012.3
20260505034550 66 205 2.6 5.2 0.00 0.00 0.00 61 1012.3
20260505034417 66 198 3.5 5.2 0.00 0.00 0.00 61 1012.3
20260505034324 66 201 3.5 5.2 0.00 0.00 0.00 61 1012.3
20260505034236 66 198 3.5 5.2 0.00 0.00 0.00 61 1012.3
20260505034142 66 184 3.5 5.2 0.00 0.00 0.00 61 1012.3
20260505034028 66 186 3.5 5.2 0.00 0.00 0.00 61 1012.3
20260505033915 66 193 2.6 3.5 0.00 0.00 0.00 61 1012.2
20260505033822 66 175 1.7 3.5 0.00 0.00 0.00 60 1012.2
20260505033729 66 207 1.7 3.5 0.00 0.00 0.00 60 1012.2
20260505033640 66 192 1.7 4.3 0.00 0.00 0.00 60 1012.2
20260505033550 66 191 2.6 4.3 0.00 0.00 0.00 60 1012.2
20260505033323 66 162 1.7 4.3 0.00 0.00 0.00 60 1012.3
20260505033211 66 169 1.7 4.3 0.00 0.00 0.00 60 1012.3
20260505033119 67 175 1.7 4.3 0.00 0.00 0.00 60 1012.3
20260505033011 67 194 1.7 4.3 0.00 0.00 0.00 60 1012.3
20260505032938 67 188 2.6 4.3 0.00 0.00 0.00 60 1012.3
20260505032824 67 196 2.6 5.2 0.00 0.00 0.00 60 1012.3
20260505032711 67 198 1.7 5.2 0.00 0.00 0.00 60 1012.3
20260505032619 67 204 1.7 5.2 0.00 0.00 0.00 60 1012.3
20260505032511 67 196 2.6 5.2 0.00 0.00 0.00 60 1012.3
20260505032438 67 183 2.6 5.2 0.00 0.00 0.00 59 1012.3
20260505032344 67 200 2.6 5.2 0.00 0.00 0.00 59 1012.3
20260505032210 67 176 2.6 5.2 0.00 0.00 0.00 60 1012.3
20260505032117 67 168 3.5 5.2 0.00 0.00 0.00 60 1012.2
20260505032048 67 181 3.5 5.2 0.00 0.00 0.00 60 1012.2
20260505031824 67 184 3.5 5.2 0.00 0.00 0.00 59 1012.3
20260505031710 67 196 2.6 5.2 0.00 0.00 0.00 59 1012.3
20260505031618 67 203 3.5 5.2 0.00 0.00 0.00 59 1012.2
20260505031526 67 186 2.6 5.2 0.00 0.00 0.00 60 1012.2
20260505031415 67 182 2.6 7.0 0.00 0.00 0.00 59 1012.3
20260505031327 67 188 2.6 7.0 0.00 0.00 0.00 59 1012.3
20260505031215 67 173 2.6 7.0 0.00 0.00 0.00 59 1012.3
20260505031143 67 188 2.6 7.0 0.00 0.00 0.00 59 1012.3
20260505031029 67 192 2.6 7.0 0.00 0.00 0.00 60 1012.2
20260505030916 67 188 2.6 7.0 0.00 0.00 0.00 59 1012.3
20260505030844 67 209 3.5 7.0 0.00 0.00 0.00 59 1012.3
20260505030730 67 187 3.5 7.0 0.00 0.00 0.00 59 1012.3
20260505030621 67 191 2.6 7.8 0.00 0.00 0.00 59 1012.3
20260505030551 67 196 2.6 7.8 0.00 0.00 0.00 59 1012.3
20260505030326 67 200 3.5 7.0 0.00 0.00 0.00 60 1012.4
20260505030214 67 195 2.6 7.0 0.00 0.00 0.00 62 1012.3
20260505030125 67 179 2.6 7.0 0.00 0.00 0.00 62 1012.3
20260505030032 67 163 2.6 7.0 0.00 0.00 0.00 61 1012.3
20260505025939 67 174 2.6 7.0 0.00 0.00 0.00 62 1012.3
20260505025826 67 197 2.6 7.0 0.00 0.00 0.00 62 1012.3
20260505025713 67 161 3.5 7.0 0.00 0.00 0.00 61 1012.2
20260505025621 67 164 2.6 4.3 0.00 0.00 0.00 61 1012.2
20260505025547 68 178 1.7 4.3 0.00 0.00 0.00 61 1012.3
20260505025418 68 184 1.7 4.3 0.00 0.00 0.00 63 1012.3
20260505025326 68 177 2.6 4.3 0.00 0.00 0.00 60 1012.3
20260505025234 68 180 2.6 4.3 0.00 0.00 0.00 60 1012.3
20260505025120 68 157 2.6 4.3 0.00 0.00 0.00 59 1012.2
20260505025050 68 165 2.6 4.3 0.00 0.00 0.00 59 1012.2
20260505024828 68 205 2.6 4.3 0.00 0.00 0.00 55 1012.3
20260505024716 68 194 1.7 4.3 0.00 0.00 0.00 55 1012.2
20260505024623 68 179 1.7 4.3 0.00 0.00 0.00 55 1012.2
20260505024550 68 165 1.7 4.3 0.00 0.00 0.00 55 1012.3
20260505024438 68 182 1.7 4.3 0.00 0.00 0.00 55 1012.3
20260505024324 68 202 2.6 4.3 0.00 0.00 0.00 55 1012.3
20260505024215 68 206 2.6 4.3 0.00 0.00 0.00 55 1012.3
20260505024122 68 180 2.6 4.3 0.00 0.00 0.00 55 1012.3
20260505024050 68 207 2.6 5.2 0.00 0.00 0.00 55 1012.4
20260505023916 68 196 2.6 7.8 0.00 0.00 0.00 56 1012.3
20260505023824 68 200 1.7 7.8 0.00 0.00 0.00 55 1012.3
20260505023710 68 175 2.6 7.8 0.00 0.00 0.00 56 1012.3
20260505023622 68 207 2.6 7.8 0.00 0.00 0.00 55 1012.3
20260505023553 69 193 2.6 7.8 0.00 0.00 0.00 55 1012.3
20260505023327 69 199 3.5 7.8 0.00 0.00 0.00 55 1012.3
20260505023213 69 198 4.3 7.8 0.00 0.00 0.00 55 1012.3
20260505023121 69 202 4.3 7.8 0.00 0.00 0.00 55 1012.3
20260505023013 69 184 3.5 7.0 0.00 0.00 0.00 55 1012.2
20260505022921 69 192 3.5 7.0 0.00 0.00 0.00 55 1012.2
20260505022848 69 190 3.5 7.0 0.00 0.00 0.00 55 1012.2
20260505022734 69 190 3.5 7.0 0.00 0.00 0.00 55 1012.2
20260505022620 69 170 2.6 7.0 0.00 0.00 0.00 55 1012.1
20260505022529 69 175 3.5 7.0 0.00 0.00 0.00 55 1012.1
20260505022421 69 189 3.5 7.0 0.00 0.00 0.00 55 1012.0
20260505022329 69 205 4.3 7.0 0.00 0.00 0.00 55 1012.0
20260505022216 69 183 3.5 7.0 0.00 0.00 0.00 55 1012.1
20260505022123 69 190 3.5 6.1 0.00 0.00 0.00 55 1012.1
20260505022056 69 177 3.5 6.1 0.00 0.00 0.00 55 1012.1
20260505021810 69 200 1.7 5.2 0.00 0.00 0.00 54 1012.0
20260505021718 69 206 1.7 4.3 0.00 0.00 0.00 54 1012.1
20260505021624 69 196 1.7 4.3 0.00 0.00 0.00 54 1012.1
20260505021512 69 186 1.7 2.6 0.00 0.00 0.00 54 1012.1
20260505021440 69 186 1.7 2.6 0.00 0.00 0.00 54 1012.0
20260505021309 69 190 1.7 3.5 0.00 0.00 0.00 54 1012.0
20260505021218 69 190 1.7 3.5 0.00 0.00 0.00 54 1012.0
20260505021125 69 173 1.7 4.3 0.00 0.00 0.00 54 1012.0
20260505021012 69 202 1.7 4.3 0.00 0.00 0.00 53 1011.9
20260505020921 69 210 0.9 4.3 0.00 0.00 0.00 54 1011.9
20260505020812 69 200 1.7 4.3 0.00 0.00 0.00 53 1011.8
20260505020740 69 215 1.7 4.3 0.00 0.00 0.00 53 1011.9
20260505020626 69 215 1.7 6.1 0.00 0.00 0.00 53 1011.9
20260505020555 69 207 2.6 6.1 0.00 0.00 0.00 53 1011.8
20260505020328 70 213 2.6 6.1 0.00 0.00 0.00 53 1011.9
20260505020221 70 209 2.6 6.1 0.00 0.00 0.00 53 1011.9
20260505020127 70 180 2.6 6.1 0.00 0.00 0.00 53 1011.9
20260505020014 70 194 2.6 6.1 0.00 0.00 0.00 53 1011.9
20260505015921 70 204 3.5 6.1 0.00 0.00 0.00 53 1011.9
20260505015810 70 209 3.5 6.1 0.00 0.00 0.00 53 1011.9
20260505015716 70 196 1.7 5.2 0.00 0.00 0.00 52 1011.9
20260505015627 70 176 2.6 5.2 0.00 0.00 0.00 52 1011.9
20260505015515 70 200 2.6 5.2 0.00 0.00 0.00 52 1011.9
20260505015423 70 169 2.6 5.2 0.00 0.00 0.00 52 1011.9
20260505015310 70 196 3.5 5.2 0.00 0.00 0.00 52 1011.9
20260505015216 70 220 3.5 5.2 0.00 0.00 0.00 52 1011.9
20260505015125 70 209 3.5 5.2 0.00 0.00 0.00 52 1011.9
20260505015100 70 190 3.5 5.2 0.00 0.00 0.00 52 1011.8
20260505014813 70 194 3.5 6.1 0.00 0.00 0.00 52 1011.8
20260505014721 70 190 3.5 6.1 0.00 0.00 0.00 52 1011.8
20260505014628 70 197 3.5 6.1 0.00 0.00 0.00 52 1011.8
20260505014520 70 163 2.6 6.1 0.00 0.00 0.00 51 1011.8
20260505014428 70 179 2.6 7.0 0.00 0.00 0.00 52 1011.8
20260505014315 70 190 3.5 7.0 0.00 0.00 0.00 52 1011.8
20260505014224 70 190 3.5 7.0 0.00 0.00 0.00 52 1011.8
20260505014131 70 200 3.5 7.0 0.00 0.00 0.00 52 1011.8
20260505014017 70 196 3.5 7.0 0.00 0.00 0.00 52 1011.7
20260505013928 70 184 3.5 7.0 0.00 0.00 0.00 51 1011.7
20260505013814 71 202 3.5 7.0 0.00 0.00 0.00 52 1011.8
20260505013722 71 180 3.5 7.0 0.00 0.00 0.00 51 1011.8
20260505013610 71 171 4.3 7.0 0.00 0.00 0.00 52 1011.8
20260505013544 71 188 4.3 7.0 0.00 0.00 0.00 52 1011.8
20260505013319 71 190 3.5 7.0 0.00 0.00 0.00 51 1011.8
20260505013227 71 184 2.6 5.2 0.00 0.00 0.00 51 1011.8
20260505013113 71 190 3.5 5.2 0.00 0.00 0.00 51 1011.7
20260505013020 71 192 3.5 5.2 0.00 0.00 0.00 51 1011.7
20260505012928 71 171 2.6 5.2 0.00 0.00 0.00 51 1011.8
20260505012819 71 146 3.5 5.2 0.00 0.00 0.00 51 1011.8
20260505012727 71 193 3.5 5.2 0.00 0.00 0.00 51 1011.8
20260505012614 71 177 3.5 5.2 0.00 0.00 0.00 51 1011.7
20260505012522 71 178 3.5 5.2 0.00 0.00 0.00 51 1011.7
20260505012429 71 169 3.5 5.2 0.00 0.00 0.00 51 1011.7
20260505012320 71 213 2.6 5.2 0.00 0.00 0.00 51 1011.7
20260505012228 71 190 3.5 5.2 0.00 0.00 0.00 51 1011.7
20260505012114 71 198 3.5 5.2 0.00 0.00 0.00 50 1011.7
20260505012044 71 207 3.5 5.2 0.00 0.00 0.00 50 1011.7
20260505011817 71 217 2.6 5.2 0.00 0.00 0.00 50 1011.8
20260505011728 71 191 2.6 5.2 0.00 0.00 0.00 50 1011.8
20260505011636 72 183 3.5 7.0 0.00 0.00 0.00 50 1011.7
20260505011524 72 189 2.6 7.0 0.00 0.00 0.00 50 1011.7
20260505011410 72 210 2.6 7.0 0.00 0.00 0.00 50 1011.7
20260505011317 72 213 3.5 7.0 0.00 0.00 0.00 50 1011.8
20260505011224 72 184 3.5 7.0 0.00 0.00 0.00 50 1011.8
20260505011132 72 190 3.5 7.0 0.00 0.00 0.00 50 1011.7
20260505011042 72 208 2.6 7.0 0.00 0.00 0.00 50 1011.7
20260505010909 72 199 4.3 8.7 0.00 0.00 0.00 50 1011.7
20260505010838 72 192 4.3 8.7 0.00 0.00 0.00 50 1011.7
20260505010743 72 200 4.3 8.7 0.00 0.00 0.00 50 1011.7
20260505010649 72 188 4.3 8.7 0.00 0.00 0.00 50 1011.7
20260505010619 72 185 4.3 8.7 0.00 0.00 0.00 50 1011.7
20260505010315 72 174 4.3 8.7 0.00 0.00 0.00 50 1011.7
20260505010222 72 213 4.3 8.7 0.00 0.00 0.00 50 1011.7
20260505010111 72 180 3.5 8.7 0.00 0.00 0.00 50 1011.6
20260505010038 72 203 3.5 7.8 0.00 0.00 0.00 49 1011.6
20260505005924 72 184 3.5 7.8 0.00 0.00 0.00 49 1011.6
20260505005812 72 208 3.5 7.8 0.00 0.00 0.00 49 1011.7
20260505005723 72 191 3.5 7.8 0.00 0.00 0.00 49 1011.7
20260505005611 72 198 5.2 7.8 0.00 0.00 0.00 49 1011.6
20260505005518 72 216 5.2 7.8 0.00 0.00 0.00 49 1011.6
20260505005427 72 175 5.2 7.8 0.00 0.00 0.00 49 1011.6
20260505005334 72 136 5.2 7.8 0.00 0.00 0.00 49 1011.4
20260505005220 73 206 5.2 7.8 0.00 0.00 0.00 49 1011.4
20260505005130 73 188 4.3 7.0 0.00 0.00 0.00 49 1011.4
20260505005101 73 182 4.3 7.0 0.00 0.00 0.00 49 1011.5
20260505004815 73 200 4.3 7.0 0.00 0.00 0.00 49 1011.4
20260505004722 73 178 4.3 7.8 0.00 0.00 0.00 49 1011.4
20260505004613 73 188 5.2 7.0 0.00 0.00 0.00 49 1011.4
20260505004541 73 177 4.3 7.0 0.00 0.00 0.00 49 1011.4
20260505004426 73 184 4.3 7.8 0.00 0.00 0.00 49 1011.4
20260505004333 73 198 3.5 8.7 0.00 0.00 0.00 49 1011.3
20260505004219 73 184 3.5 8.7 0.00 0.00 0.00 49 1011.3
20260505004127 73 165 3.5 8.7 0.00 0.00 0.00 49 1011.3
20260505004018 73 164 3.5 8.7 0.00 0.00 0.00 49 1011.3
20260505003925 73 180 3.5 8.7 0.00 0.00 0.00 48 1011.3
20260505003811 73 167 4.3 8.7 0.00 0.00 0.00 48 1011.3
20260505003739 73 207 4.3 8.7 0.00 0.00 0.00 48 1011.2
20260505003626 73 200 2.6 8.7 0.00 0.00 0.00 48 1011.2
20260505003559 73 188 2.6 7.0 0.00 0.00 0.00 48 1011.3
20260505003313 73 182 2.6 7.8 0.00 0.00 0.00 48 1011.3
20260505003240 73 195 3.5 8.7 0.00 0.00 0.00 48 1011.3
20260505003126 73 205 4.3 8.7 0.00 0.00 0.00 48 1011.3
20260505003013 73 190 4.3 8.7 0.00 0.00 0.00 48 1011.3
20260505002921 74 186 3.5 8.7 0.00 0.00 0.00 48 1011.3
20260505002812 74 184 3.5 10.4 0.00 0.00 0.00 47 1011.3
20260505002720 74 178 3.5 10.4 0.00 0.00 0.00 48 1011.3
20260505002628 74 178 3.5 10.4 0.00 0.00 0.00 47 1011.4
20260505002514 74 182 4.3 10.4 0.00 0.00 0.00 47 1011.2
20260505002423 74 178 4.3 10.4 0.00 0.00 0.00 48 1011.2
20260505002329 74 200 4.3 10.4 0.00 0.00 0.00 47 1011.2
20260505002303 74 209 4.3 10.4 0.00 0.00 0.00 48 1011.3
20260505002207 74 177 5.2 10.4 0.00 0.00 0.00 47 1011.2
20260505002115 74 203 5.2 10.4 0.00 0.00 0.00 47 1011.2
20260505001828 74 213 4.3 10.4 0.00 0.00 0.00 47 1011.2
20260505001714 74 166 5.2 10.4 0.00 0.00 0.00 47 1011.2
20260505001625 74 182 5.2 10.4 0.00 0.00 0.00 47 1011.2
20260505001512 74 182 5.2 10.4 0.00 0.00 0.00 47 1011.1
20260505001419 74 175 6.1 13.0 0.00 0.00 0.00 47 1011.2
20260505001327 74 188 7.0 13.0 0.00 0.00 0.00 47 1011.2
20260505001214 74 194 6.1 13.0 0.00 0.00 0.00 47 1011.2
20260505001142 74 223 5.2 13.0 0.00 0.00 0.00 47 1011.2
20260505001014 75 202 4.3 13.0 0.00 0.00 0.00 47 1011.1
20260505000921 75 194 5.2 13.0 0.00 0.00 0.00 47 1011.1
20260505000810 75 202 5.2 13.0 0.00 0.00 0.00 47 1011.1
20260505000738 75 177 6.1 13.0 0.00 0.00 0.00 47 1011.2
20260505000626 75 209 6.1 13.0 0.00 0.00 0.00 47 1011.2
20260505000600 75 198 6.1 12.2 0.00 0.00 0.00 46 1011.2
20260505000333 75 182 6.1 12.2 0.00 0.00 0.00 46 1011.2
20260505000219 75 187 7.0 12.2 0.00 0.00 0.00 46 1011.2
20260505000126 75 184 7.0 12.2 0.00 0.00 0.00 46 1011.2
20260505000014 75 171 7.8 12.2 0.00 0.00 0.00 46 1011.2
20260504235923 75 207 7.0 11.3 0.00 0.00 0.00 46 1011.2
20260504235815 75 196 5.2 11.3 0.00 0.00 0.00 47 1011.1
20260504235743 75 179 5.2 11.3 0.00 0.00 0.00 46 1011.1
20260504235610 75 178 6.1 11.3 0.00 0.00 0.00 47 1011.2
20260504235519 75 208 5.2 11.3 0.00 0.00 0.00 46 1011.1
20260504235426 76 223 5.2 11.3 0.00 0.00 0.00 47 1011.1
20260504235318 76 202 6.1 11.3 0.00 0.00 0.00 47 1011.1
20260504235225 76 212 7.8 11.3 0.00 0.00 0.00 46 1011.1
20260504235153 76 184 7.0 10.4 0.00 0.00 0.00 46 1011.2
20260504235102 76 171 7.0 12.2 0.00 0.00 0.00 46 1011.2
20260504234814 76 167 5.2 12.2 0.00 0.00 0.00 46 1011.2
20260504234741 76 83 5.2 12.2 0.00 0.00 0.00 46 1011.2
20260504234612 76 171 7.0 12.2 0.00 0.00 0.00 46 1011.2
20260504234540 76 173 7.0 12.2 0.00 0.00 0.00 46 1011.2
20260504234426 76 211 7.0 12.2 0.00 0.00 0.00 46 1011.2
20260504234333 76 215 7.0 12.2 0.00 0.00 0.00 45 1011.3
20260504234239 76 175 6.1 13.0 0.00 0.00 0.00 45 1011.1
20260504234146 76 196 6.1 10.4 0.00 0.00 0.00 45 1011.1
20260504234012 76 190 7.0 10.4 0.00 0.00 0.00 45 1011.1
20260504233924 76 159 7.0 10.4 0.00 0.00 0.00 45 1011.1
20260504233811 76 165 5.2 13.9 0.00 0.00 0.00 45 1011.1
20260504233739 76 186 5.2 13.9 0.00 0.00 0.00 45 1011.1
20260504233708 76 180 6.1 13.9 0.00 0.00 0.00 45 1011.1
20260504233618 76 155 7.8 13.9 0.00 0.00 0.00 45 1011.1
20260504233314 77 197 7.8 13.9 0.00 0.00 0.00 44 1011.2
20260504233221 77 183 7.8 13.9 0.00 0.00 0.00 44 1011.2
20260504233128 77 182 8.7 13.9 0.00 0.00 0.00 45 1011.2
20260504233015 77 212 7.8 13.9 0.00 0.00 0.00 44 1011.1
20260504232924 77 202 7.8 13.9 0.00 0.00 0.00 44 1011.1
20260504232814 77 222 6.1 12.2 0.00 0.00 0.00 44 1011.2
20260504232722 77 216 7.0 12.2 0.00 0.00 0.00 45 1011.2
20260504232610 77 218 7.8 12.2 0.00 0.00 0.00 45 1011.2
20260504232538 77 206 7.0 12.2 0.00 0.00 0.00 45 1011.2
20260504232423 77 167 5.2 12.2 0.00 0.00 0.00 45 1011.2
20260504232310 77 220 4.3 12.2 0.00 0.00 0.00 44 1011.2
20260504232221 77 192 6.1 12.2 0.00 0.00 0.00 44 1011.2
20260504232129 77 175 7.8 12.2 0.00 0.00 0.00 44 1011.3
20260504232100 77 196 7.8 12.2 0.00 0.00 0.00 43 1011.3
20260504231814 77 180 8.7 12.2 0.00 0.00 0.00 43 1011.3
20260504231721 77 181 7.0 11.3 0.00 0.00 0.00 44 1011.3
20260504231612 77 205 6.1 11.3 0.00 0.00 0.00 44 1011.3
20260504231520 77 171 6.1 14.8 0.00 0.00 0.00 43 1011.3
20260504231428 77 197 6.1 15.6 0.00 0.00 0.00 43 1011.3
20260504231315 77 211 5.2 15.6 0.00 0.00 0.00 43 1011.2
20260504231243 77 194 6.1 15.6 0.00 0.00 0.00 43 1011.2
20260504231113 78 200 7.0 15.6 0.00 0.00 0.00 43 1011.2
20260504231021 78 194 6.1 15.6 0.00 0.00 0.00 43 1011.2
20260504230928 78 227 5.2 15.6 0.00 0.00 0.00 43 1011.2
20260504230814 78 142 6.1 15.6 0.00 0.00 0.00 43 1011.3
20260504230721 78 205 8.7 15.6 0.00 0.00 0.00 42 1011.3
20260504230628 78 195 9.6 15.6 0.00 0.00 0.00 42 1011.3
20260504230543 78 207 7.8 14.8 0.00 0.00 0.00 41 1011.2
20260504230315 78 250 7.0 13.0 0.00 0.00 0.00 42 1011.2
20260504230242 78 193 7.8 12.2 0.00 0.00 0.00 42 1011.2
20260504230129 78 265 7.0 13.0 0.00 0.00 0.00 42 1011.2
20260504230017 78 173 7.0 10.4 0.00 0.00 0.00 42 1011.2
20260504225929 78 244 7.8 12.2 0.00 0.00 0.00 41 1011.2
20260504225838 78 217 8.7 12.2 0.00 0.00 0.00 41 1011.2
20260504225723 78 192 7.0 10.4 0.00 0.00 0.00 41 1011.2
20260504225650 78 190 6.1 11.3 0.00 0.00 0.00 41 1011.3
20260504225517 78 197 5.2 11.3 0.00 0.00 0.00 41 1011.2
20260504225424 78 215 4.3 13.9 0.00 0.00 0.00 41 1011.2
20260504225315 78 184 6.1 13.9 0.00 0.00 0.00 41 1011.2
20260504225244 78 235 6.1 13.9 0.00 0.00 0.00 41 1011.2
20260504225149 78 201 6.1 13.9 0.00 0.00 0.00 41 1011.3
20260504225057 78 209 7.8 15.6 0.00 0.00 0.00 41 1011.3
20260504224811 78 198 7.8 15.6 0.00 0.00 0.00 41 1011.3
20260504224722 79 132 7.8 15.6 0.00 0.00 0.00 42 1011.3
20260504224649 79 182 7.8 15.6 0.00 0.00 0.00 42 1011.3
20260504224516 79 209 6.1 15.6 0.00 0.00 0.00 42 1011.3
20260504224422 79 179 6.1 15.6 0.00 0.00 0.00 42 1011.3
20260504224349 79 177 7.8 15.6 0.00 0.00 0.00 42 1011.3
20260504224215 79 167 7.8 15.6 0.00 0.00 0.00 42 1011.2
20260504224123 79 180 7.0 11.3 0.00 0.00 0.00 42 1011.2
20260504224034 79 258 7.0 11.3 0.00 0.00 0.00 42 1011.3
20260504223921 79 188 6.1 11.3 0.00 0.00 0.00 43 1011.3
20260504223848 79 192 5.2 10.4 0.00 0.00 0.00 42 1011.3
20260504223715 79 179 6.1 10.4 0.00 0.00 0.00 43 1011.3
20260504223623 79 186 6.1 10.4 0.00 0.00 0.00 42 1011.3
20260504223558 79 119 5.2 13.0 0.00 0.00 0.00 42 1011.3
20260504223332 78 213 4.3 13.0 0.00 0.00 0.00 42 1011.5
20260504223218 78 205 5.2 13.0 0.00 0.00 0.00 42 1011.5
20260504223126 78 190 6.1 13.0 0.00 0.00 0.00 42 1011.5
20260504223014 78 207 7.0 13.0 0.00 0.00 0.00 41 1011.5
20260504222942 79 175 7.0 13.0 0.00 0.00 0.00 41 1011.5
20260504222833 79 176 8.7 20.0 0.00 0.00 0.00 41 1011.5
20260504222720 79 180 8.7 20.0 0.00 0.00 0.00 41 1011.5
20260504222627 79 194 7.0 20.0 0.00 0.00 0.00 41 1011.5
20260504222515 79 213 7.8 20.0 0.00 0.00 0.00 41 1011.6
20260504222423 79 303 7.0 20.0 0.00 0.00 0.00 42 1011.6
20260504222311 79 182 7.0 20.0 0.00 0.00 0.00 41 1011.6
20260504222222 79 217 7.8 20.0 0.00 0.00 0.00 40 1011.6
20260504222131 79 200 8.7 20.0 0.00 0.00 0.00 40 1011.6
20260504222102 79 224 10.4 20.0 0.00 0.00 0.00 40 1011.6
20260504221814 79 215 10.4 16.5 0.00 0.00 0.00 39 1011.6
20260504221725 79 196 9.6 16.5 0.00 0.00 0.00 39 1011.6
20260504221612 79 196 8.7 13.9 0.00 0.00 0.00 39 1011.6
20260504221519 79 182 8.7 13.9 0.00 0.00 0.00 38 1011.6
20260504221428 79 203 9.6 13.9 0.00 0.00 0.00 38 1011.6
20260504221315 79 200 7.8 14.8 0.00 0.00 0.00 39 1011.5
20260504221222 79 190 7.8 14.8 0.00 0.00 0.00 38 1011.5
20260504221113 79 216 8.7 14.8 0.00 0.00 0.00 38 1011.6
20260504221021 79 177 8.7 14.8 0.00 0.00 0.00 38 1011.6
20260504220928 79 169 8.7 16.5 0.00 0.00 0.00 39 1011.6
20260504220814 79 178 7.8 16.5 0.00 0.00 0.00 39 1011.7
20260504220722 79 174 8.7 16.5 0.00 0.00 0.00 39 1011.7
20260504220613 79 187 8.7 16.5 0.00 0.00 0.00 40 1011.7
20260504220544 79 207 7.8 16.5 0.00 0.00 0.00 40 1011.7
20260504220317 79 185 8.7 16.5 0.00 0.00 0.00 40 1011.7
20260504220245 79 171 9.6 16.5 0.00 0.00 0.00 39 1011.7
20260504220131 79 198 9.6 16.5 0.00 0.00 0.00 41 1011.6
20260504220021 79 257 10.4 16.5 0.00 0.00 0.00 41 1011.6
20260504215947 79 202 11.3 16.5 0.00 0.00 0.00 41 1011.6
20260504215813 79 189 9.6 16.5 0.00 0.00 0.00 42 1011.6
20260504215720 79 191 9.6 16.5 0.00 0.00 0.00 42 1011.6
20260504215627 79 175 7.0 16.5 0.00 0.00 0.00 42 1011.6
20260504215515 79 143 6.1 16.5 0.00 0.00 0.00 43 1011.6
20260504215427 79 187 7.8 16.5 0.00 0.00 0.00 42 1011.6
20260504215314 79 207 9.6 16.5 0.00 0.00 0.00 42 1011.6
20260504215220 79 198 9.6 16.5 0.00 0.00 0.00 43 1011.6
20260504215127 79 188 9.6 15.6 0.00 0.00 0.00 42 1011.7
20260504215057 79 180 10.4 15.6 0.00 0.00 0.00 42 1011.6
20260504214834 79 166 7.8 15.6 0.00 0.00 0.00 43 1011.7
20260504214719 79 250 5.2 12.2 0.00 0.00 0.00 43 1011.6
20260504214647 79 180 5.2 12.2 0.00 0.00 0.00 43 1011.6
20260504214514 79 137 6.1 13.9 0.00 0.00 0.00 42 1011.6
20260504214422 79 220 6.1 13.9 0.00 0.00 0.00 42 1011.6
20260504214310 78 209 6.1 13.9 0.00 0.00 0.00 42 1011.7
20260504214242 79 236 7.0 13.9 0.00 0.00 0.00 42 1011.7
20260504214128 79 264 7.8 13.9 0.00 0.00 0.00 43 1011.7
20260504214016 79 201 6.1 13.9 0.00 0.00 0.00 43 1011.7
20260504213923 78 219 7.0 13.9 0.00 0.00 0.00 43 1011.7
20260504213811 78 171 7.8 13.9 0.00 0.00 0.00 42 1011.6
20260504213718 78 203 7.0 13.9 0.00 0.00 0.00 41 1011.7
20260504213629 78 244 6.1 14.8 0.00 0.00 0.00 41 1011.7
20260504213559 78 227 7.0 14.8 0.00 0.00 0.00 42 1011.7
20260504213313 78 177 8.7 14.8 0.00 0.00 0.00 41 1011.6
20260504213221 78 182 8.7 14.8 0.00 0.00 0.00 42 1011.6
20260504213112 79 177 7.8 14.8 0.00 0.00 0.00 42 1011.6
20260504213019 79 158 7.8 14.8 0.00 0.00 0.00 43 1011.6
20260504212947 79 207 8.7 14.8 0.00 0.00 0.00 43 1011.6
20260504212833 79 197 8.7 14.8 0.00 0.00 0.00 43 1011.7
20260504212721 79 194 10.4 14.8 0.00 0.00 0.00 43 1011.7
20260504212609 79 174 11.3 14.8 0.00 0.00 0.00 44 1011.7
20260504212517 79 202 9.6 13.9 0.00 0.00 0.00 44 1011.7
20260504212449 79 183 8.7 13.9 0.00 0.00 0.00 44 1011.7
20260504212314 79 169 7.0 13.9 0.00 0.00 0.00 43 1011.5
20260504212242 79 184 7.0 13.9 0.00 0.00 0.00 43 1011.5
20260504212128 79 175 7.8 13.9 0.00 0.00 0.00 44 1011.6
20260504212058 79 189 7.8 13.9 0.00 0.00 0.00 44 1011.5
20260504211835 80 202 7.0 13.0 0.00 0.00 0.00 43 1011.6
20260504211723 80 193 6.1 15.6 0.00 0.00 0.00 43 1011.6
20260504211609 80 248 4.3 15.6 0.00 0.00 0.00 44 1011.5
20260504211516 80 238 5.2 15.6 0.00 0.00 0.00 43 1011.6
20260504211423 80 192 5.2 17.4 0.00 0.00 0.00 43 1011.6
20260504211310 80 286 5.2 17.4 0.00 0.00 0.00 43 1011.7
20260504211222 79 191 5.2 17.4 0.00 0.00 0.00 41 1011.7
20260504211110 79 206 6.1 17.4 0.00 0.00 0.00 41 1011.7
20260504211017 79 175 8.7 17.4 0.00 0.00 0.00 41 1011.7
20260504210924 79 183 8.7 17.4 0.00 0.00 0.00 39 1011.7
20260504210812 79 226 7.8 17.4 0.00 0.00 0.00 39 1011.7
20260504210740 79 241 8.7 17.4 0.00 0.00 0.00 39 1011.7
20260504210630 79 228 9.6 17.4 0.00 0.00 0.00 40 1011.7
20260504210600 79 211 8.7 14.8 0.00 0.00 0.00 40 1011.7
20260504210313 79 183 7.0 18.2 0.00 0.00 0.00 40 1011.8
20260504210221 79 197 7.0 18.2 0.00 0.00 0.00 42 1011.8
20260504210113 79 194 7.8 18.2 0.00 0.00 0.00 41 1011.7
20260504210040 79 193 8.7 18.2 0.00 0.00 0.00 42 1011.7
20260504205928 79 126 7.8 18.2 0.00 0.00 0.00 41 1011.7
20260504205835 79 194 7.8 18.2 0.00 0.00 0.00 43 1011.7
20260504205722 79 212 10.4 18.2 0.00 0.00 0.00 43 1011.7
20260504205609 79 163 12.2 18.2 0.00 0.00 0.00 44 1011.8
20260504205515 79 167 10.4 16.5 0.00 0.00 0.00 44 1011.8
20260504205427 79 180 8.7 19.1 0.00 0.00 0.00 46 1011.8
20260504205314 79 157 5.2 13.0 0.00 0.00 0.00 48 1011.8
20260504205220 79 178 6.1 13.0 0.00 0.00 0.00 46 1011.8
20260504205147 79 194 6.1 14.8 0.00 0.00 0.00 46 1011.8
20260504205056 79 183 6.1 15.6 0.00 0.00 0.00 47 1011.8
20260504204814 79 229 7.8 15.6 0.00 0.00 0.00 46 1011.9
20260504204722 79 167 8.7 15.6 0.00 0.00 0.00 45 1011.9
20260504204609 79 183 7.8 15.6 0.00 0.00 0.00 44 1012.0
20260504204538 79 175 8.7 15.6 0.00 0.00 0.00 44 1011.9
20260504204424 79 189 9.6 15.6 0.00 0.00 0.00 44 1011.9
20260504204311 79 167 11.3 16.5 0.00 0.00 0.00 44 1011.9
20260504204222 79 212 10.4 14.8 0.00 0.00 0.00 44 1011.9
20260504204110 79 198 7.8 13.0 0.00 0.00 0.00 45 1011.8
20260504204017 79 157 7.0 13.0 0.00 0.00 0.00 46 1011.8
20260504203946 79 142 6.1 13.0 0.00 0.00 0.00 45 1011.8
20260504203811 79 191 6.1 13.0 0.00 0.00 0.00 47 1011.9
20260504203719 79 163 6.1 16.5 0.00 0.00 0.00 45 1011.9
20260504203631 79 140 7.0 16.5 0.00 0.00 0.00 47 1011.9
20260504203602 79 153 7.0 16.5 0.00 0.00 0.00 47 1011.9
20260504203316 79 178 8.7 16.5 0.00 0.00 0.00 46 1012.0
20260504203223 79 184 8.7 16.5 0.00 0.00 0.00 46 1012.0
20260504203115 79 178 7.8 16.5 0.00 0.00 0.00 45 1012.0
20260504203023 78 178 7.8 16.5 0.00 0.00 0.00 45 1012.0
20260504202911 78 190 9.6 13.9 0.00 0.00 0.00 44 1012.0
20260504202817 78 178 8.7 13.9 0.00 0.00 0.00 44 1012.0
20260504202725 78 206 7.8 13.9 0.00 0.00 0.00 44 1012.0
20260504202616 78 200 7.8 11.3 0.00 0.00 0.00 45 1012.0
20260504202524 78 200 7.0 10.4 0.00 0.00 0.00 46 1012.0
20260504202411 78 185 7.8 10.4 0.00 0.00 0.00 45 1012.1
20260504202319 78 171 7.0 10.4 0.00 0.00 0.00 44 1012.1
20260504202247 78 158 6.1 11.3 0.00 0.00 0.00 45 1012.1
20260504202114 78 192 6.1 12.2 0.00 0.00 0.00 45 1012.0
20260504202049 78 265 6.1 12.2 0.00 0.00 0.00 45 1012.0
20260504201822 78 195 6.1 19.1 0.00 0.00 0.00 45 1012.1
20260504201709 78 109 6.1 19.1 0.00 0.00 0.00 45 1012.1
20260504201617 78 150 6.1 19.1 0.00 0.00 0.00 45 1012.1
20260504201525 78 142 7.0 19.1 0.00 0.00 0.00 46 1012.1
20260504201415 78 206 7.0 19.1 0.00 0.00 0.00 46 1012.1
20260504201322 78 178 7.0 19.1 0.00 0.00 0.00 46 1012.1
20260504201248 78 194 7.0 19.1 0.00 0.00 0.00 45 1012.2
20260504201115 78 188 9.6 19.1 0.00 0.00 0.00 45 1012.2
20260504201042 78 194 9.6 19.1 0.00 0.00 0.00 45 1012.2
20260504200929 78 186 8.7 16.5 0.00 0.00 0.00 45 1012.2
20260504200821 78 103 7.0 11.3 0.00 0.00 0.00 45 1012.2
20260504200748 78 193 6.1 10.4 0.00 0.00 0.00 47 1012.2
20260504200614 78 222 5.2 13.9 0.00 0.00 0.00 48 1012.1
20260504200545 78 212 5.2 13.9 0.00 0.00 0.00 47 1012.1
20260504200318 78 200 5.2 13.9 0.00 0.00 0.00 48 1012.2
20260504200229 78 200 6.1 13.9 0.00 0.00 0.00 47 1012.2
20260504200116 78 185 7.8 14.8 0.00 0.00 0.00 46 1012.3
20260504200023 78 223 7.0 14.8 0.00 0.00 0.00 46 1012.3
20260504195912 78 181 7.0 14.8 0.00 0.00 0.00 46 1012.3
20260504195839 78 187 7.8 14.8 0.00 0.00 0.00 46 1012.3
20260504195724 78 189 8.7 14.8 0.00 0.00 0.00 46 1012.3
20260504195616 79 158 7.8 14.8 0.00 0.00 0.00 45 1012.3
20260504195524 79 187 7.8 14.8 0.00 0.00 0.00 45 1012.3
20260504195410 79 174 7.0 14.8 0.00 0.00 0.00 45 1012.2
20260504195317 79 200 7.8 14.8 0.00 0.00 0.00 45 1012.4
20260504195225 79 165 8.7 15.6 0.00 0.00 0.00 45 1012.4
20260504195118 79 168 8.7 14.8 0.00 0.00 0.00 45 1012.4
20260504195047 78 157 7.8 14.8 0.00 0.00 0.00 45 1012.4
20260504194821 78 169 6.1 12.2 0.00 0.00 0.00 46 1012.4
20260504194729 79 221 6.1 12.2 0.00 0.00 0.00 47 1012.4
20260504194619 79 146 7.0 12.2 0.00 0.00 0.00 46 1012.5
20260504194527 79 124 5.2 12.2 0.00 0.00 0.00 46 1012.5
20260504194416 79 154 5.2 12.2 0.00 0.00 0.00 47 1012.5
20260504194322 78 132 7.0 12.2 0.00 0.00 0.00 47 1012.5
20260504194210 78 197 6.1 12.2 0.00 0.00 0.00 47 1012.5
20260504194119 78 153 5.2 13.0 0.00 0.00 0.00 48 1012.5
20260504194010 78 172 5.2 13.0 0.00 0.00 0.00 49 1012.6
20260504193917 78 203 6.1 13.9 0.00 0.00 0.00 49 1012.6
20260504193824 78 193 7.0 13.9 0.00 0.00 0.00 48 1012.6
20260504193712 78 180 6.1 13.9 0.00 0.00 0.00 48 1012.5
20260504193620 78 207 4.3 14.8 0.00 0.00 0.00 48 1012.5
20260504193556 78 178 5.2 14.8 0.00 0.00 0.00 47 1012.6
20260504193309 79 325 7.0 14.8 0.00 0.00 0.00 47 1012.7
20260504193218 79 174 8.7 14.8 0.00 0.00 0.00 49 1012.6
20260504193126 79 143 7.8 14.8 0.00 0.00 0.00 47 1012.6
20260504193017 79 161 7.8 14.8 0.00 0.00 0.00 49 1012.7
20260504192924 79 206 7.8 14.8 0.00 0.00 0.00 48 1012.7
20260504192812 79 203 8.7 14.8 0.00 0.00 0.00 47 1012.7
20260504192720 79 176 7.0 13.0 0.00 0.00 0.00 48 1012.7
20260504192626 79 175 5.2 10.4 0.00 0.00 0.00 51 1012.7
20260504192513 78 200 3.5 9.6 0.00 0.00 0.00 50 1012.7
20260504192425 78 174 3.5 9.6 0.00 0.00 0.00 49 1012.7
20260504192312 78 120 3.5 9.6 0.00 0.00 0.00 49 1012.8
20260504192221 78 215 4.3 9.6 0.00 0.00 0.00 49 1012.8
20260504192149 78 190 5.2 9.6 0.00 0.00 0.00 49 1012.8
20260504192058 78 178 7.0 10.4 0.00 0.00 0.00 49 1012.7
20260504191817 78 202 7.0 10.4 0.00 0.00 0.00 48 1012.8
20260504191744 78 220 5.2 10.4 0.00 0.00 0.00 49 1012.8
20260504191610 78 203 5.2 10.4 0.00 0.00 0.00 50 1012.9
20260504191518 78 177 6.1 10.4 0.00 0.00 0.00 49 1012.9
20260504191424 78 167 6.1 10.4 0.00 0.00 0.00 49 1012.9
20260504191316 78 199 7.0 10.4 0.00 0.00 0.00 47 1012.9
20260504191243 78 196 7.8 10.4 0.00 0.00 0.00 47 1012.9
20260504191111 78 223 7.8 10.4 0.00 0.00 0.00 48 1013.0
20260504191017 78 192 7.0 11.3 0.00 0.00 0.00 50 1013.0
20260504190925 78 198 6.1 10.4 0.00 0.00 0.00 50 1013.0
20260504190813 78 200 6.1 10.4 0.00 0.00 0.00 48 1013.1
20260504190725 78 232 5.2 10.4 0.00 0.00 0.00 51 1013.1
20260504190652 78 192 4.3 10.4 0.00 0.00 0.00 49 1013.1
20260504190620 78 179 4.3 10.4 0.00 0.00 0.00 49 1013.1
20260504190311 78 170 5.2 10.4 0.00 0.00 0.00 49 1013.1
20260504190239 78 221 6.1 10.4 0.00 0.00 0.00 49 1013.1
20260504190125 78 205 5.2 10.4 0.00 0.00 0.00 49 1013.1
20260504190037 78 194 3.5 12.2 0.00 0.00 0.00 48 1013.1
20260504185923 78 190 4.3 12.2 0.00 0.00 0.00 47 1013.1
20260504185810 78 160 5.2 12.2 0.00 0.00 0.00 47 1013.2
20260504185718 78 190 5.2 11.3 0.00 0.00 0.00 48 1013.2
20260504185627 78 192 5.2 11.3 0.00 0.00 0.00 48 1013.2
20260504185518 78 179 7.0 11.3 0.00 0.00 0.00 48 1013.2
20260504185425 78 242 7.8 11.3 0.00 0.00 0.00 47 1013.2
20260504185332 78 290 7.8 11.3 0.00 0.00 0.00 48 1013.2
20260504185239 78 211 7.0 11.3 0.00 0.00 0.00 47 1013.1
20260504185125 78 258 7.0 11.3 0.00 0.00 0.00 48 1013.1
20260504185055 78 220 7.0 11.3 0.00 0.00 0.00 48 1013.2
20260504184813 78 185 7.8 11.3 0.00 0.00 0.00 47 1013.3
20260504184741 78 209 5.2 12.2 0.00 0.00 0.00 47 1013.3
20260504184648 78 181 4.3 7.8 0.00 0.00 0.00 47 1013.2
20260504184514 78 191 5.2 10.4 0.00 0.00 0.00 47 1013.4
20260504184421 78 210 5.2 10.4 0.00 0.00 0.00 47 1013.4
20260504184328 79 177 5.2 13.0 0.00 0.00 0.00 47 1013.4
20260504184219 79 229 5.2 13.0 0.00 0.00 0.00 47 1013.5